Regional Weather Roundup
Issued by NWS

Home | Current Version | Previous Version | Text Only | Print | Product List | Glossary Off
Versions: 1 2 3 4 5 6 7 8 9 10 11 12 13 14 15 16 17 18 19 20 21 22 23 24 25 26 27 28 29 30 31 32 33 34 35 36 37 38 39 40 41 42 43 44 45 46 47 48 49 50

000
ASUS43 KMKX 310600
RWRWI

WISCONSIN REGIONAL WEATHER ROUNDUP
NATIONAL WEATHER SERVICE MILWAUKEE/SULLIVAN WI
100 AM CDT THU JUL 31 2014

NOTE: "FAIR" INDICATES FEW OR NO CLOUDS BELOW 12,000 FEET WITH NO
SIGNIFICANT WEATHER AND/OR OBSTRUCTIONS TO VISIBILITY.

WIZ001-002-006>008-014>016-023>028-310700-
NORTHWEST WISCONSIN

CITY           SKY/WX    TMP DP  RH WIND       PRES   REMARKS
SUPERIOR ARPT  CLEAR     64  58  81 NW5       29.98S
ASHLAND        PTCLDY    58  57  97 SW5       29.99R
6HR MIN TEMP:  58; 6HR MAX TEMP:  69;

HAYWARD        PTCLDY    61  61 100 CALM      30.01S FOG
6HR MIN TEMP:  60; 6HR MAX TEMP:  71; 6HR PCP:  0.04;

SIREN          CLEAR     62  57  84 W3        30.02S
RICE LAKE      CLEAR     59  58  95 CALM      30.03S
6HR MIN TEMP:  58; 6HR MAX TEMP:  67; 6HR PCP:  0.05;

LADYSMITH      MOCLDY    60  59  95 CALM      30.03S
EAU CLAIRE     CLEAR     61  59  93 SW5       30.01S
6HR MIN TEMP:  61; 6HR MAX TEMP:  76; 6HR PCP:  0.26;

MENOMONIE      CLEAR     64  57  79 SW5       30.03S
6HR MIN TEMP:  64; 6HR MAX TEMP:  76;

NEW RICHMOND   CLEAR     61  56  83 W6        30.04S
OSCEOLA        CLEAR     59  58  97 CALM      30.06R
$$

WIZ003>005-009-010-017-018-310700-
NORTH CENTRAL WISCONSIN

CITY           SKY/WX    TMP DP  RH WIND       PRES   REMARKS
WOODRUFF       CLEAR     55  47  76 CALM      30.00S
RHINELANDER    PTCLDY    54  53  97 W3        30.01S FOG
6HR MIN TEMP:  50; 6HR MAX TEMP:  68;

EAGLE RIVER    FOG       50  50 100 CALM      30.00S VSB 1/4
LAND O LAKES   FOG       49  49 100 CALM      30.01S VSB 1/2
PHILLIPS       MOCLDY    58  57  97 CALM      30.00S
6HR MIN TEMP:  58; 6HR MAX TEMP:  67; 6HR PCP:  0.01;

TOMAHAWK       FOG       52  51  97 CALM      30.01S VSB 3/4
MEDFORD        CLOUDY    60  58  95 W3        30.02R
MERRILL        PTCLDY    55  55  99 CALM      30.00S
$$

WIZ029-030-035-036-043>047-310700-
CENTRAL WISCONSIN

CITY           SKY/WX    TMP DP  RH WIND       PRES   REMARKS
WAUSAU         PTCLDY    62  58  86 NW5       29.99F
6HR MIN TEMP:  61; 6HR MAX TEMP:  72; 6HR PCP:  0.01;

MOSINEE        MOCLDY    59  59 100 W5        30.01F
MARSHFIELD     CLOUDY    62  59  90 W6        30.01F
6HR MIN TEMP:  61; 6HR MAX TEMP:  70; 6HR PCP:  0.12;

STEVENS POINT  MOCLDY    61  56  85 CALM      30.01F
WAUPACA        MOCLDY    62  58  86 CALM      30.00F
6HR MIN TEMP:  61; 6HR MAX TEMP:  75;

WAUTOMA        NOT AVBL
WISC RAPIDS    CLOUDY    62  60  93 W8        30.02F
6HR MIN TEMP:  62; 6HR MAX TEMP:  72; 6HR PCP:  0.11;

CAMP DOUGLAS   NOT AVBL
$$

WIZ011>013-019>022-031-037>040-048>050-310700-
NORTHEAST WISCONSIN

CITY           SKY/WX    TMP DP  RH WIND       PRES   REMARKS
ANTIGO         PTCLDY    51  50  99 CALM      30.01S
STURGEON BAY   PTCLDY    61  55  82 NW7       29.98S
6HR MIN TEMP:  61; 6HR MAX TEMP:  64;

GREEN BAY      CLEAR     59  58  96 SW3       29.99R
6HR MIN TEMP:  59; 6HR MAX TEMP:  71; 6HR PCP:  0.05;

MANITOWOC      NOT AVBL
APPLETON       CLEAR     59  54  82 CALM      30.00S
CLINTONVILLE   CLEAR     55  54  94 CALM      29.99F
OSHKOSH        PTCLDY    63  56  78 W3        29.99F
6HR MIN TEMP:  62; 6HR MAX TEMP:  73;

$$

WIZ032>034-041-042-053>061-310700-
SOUTHWEST WISCONSIN

CITY           SKY/WX    TMP DP  RH WIND       PRES   REMARKS
LA CROSSE      CLEAR     66  61  84 CALM      30.02S
6HR MIN TEMP:  66; 6HR MAX TEMP:  77;

SPARTA         CLEAR     60  59  97 E3        30.04R FOG
VIROQUA        FAIR      62  61  97 SW6       30.05S
BOSCOBEL       CLEAR     62  59  90 SW3       30.04S
6HR MIN TEMP:  61; 6HR MAX TEMP:  77;

PRAIRIE DU CHI CLEAR     61  58  90 CALM      30.05R
PLATTEVILLE    FAIR      63  58  83 SW5       30.06S
$$

WIZ056-057-062-063-064-067-068-310700-
SOUTH CENTRAL WISCONSIN

CITY           SKY/WX    TMP DP  RH WIND       PRES   REMARKS
BARABOO/DELLS  CLOUDY    64  55  73 CALM      30.03S
LONE ROCK      NOT AVBL
WATERTOWN      PTCLDY    59  54  84 CALM      30.01S
MADISON        PTCLDY    65  54  67 W3        30.02F
6HR MIN TEMP:  61; 6HR MAX TEMP:  74;

MIDDLETON      MOCLDY    59  55  87 N7        30.05R
MONROE         CLEAR     63  54  72 W9        30.05S
JANESVILLE     CLEAR     59  54  82 CALM      30.03S
$$

WIZ051-052-058>065-066-070>072-310700-
SOUTHEAST WISCONSIN

CITY           SKY/WX    TMP DP  RH WIND       PRES   REMARKS
MILWAUKEE      PTCLDY    61  55  81 SW6       30.01F
6HR MIN TEMP:  60; 6HR MAX TEMP:  68;

WAUKESHA       MOCLDY    57  52  82 S3        30.03S
MILWAUKEE/TIMM MOCLDY    59  54  82 SW5       30.02S
RACINE         CLEAR     60  56  86 SW8       30.04S
6HR MIN TEMP:  59; 6HR MAX TEMP:  67;

BURLINGTON     CLEAR     52  51  97 S5        30.03S
KENOSHA        CLEAR     57  56  96 SW5       30.03S
6HR MIN TEMP:  54; 6HR MAX TEMP:  66;

FOND DU LAC    MOCLDY    61  56  83 SW5       30.00F
6HR MIN TEMP:  61; 6HR MAX TEMP:  72;

SHEBOYGAN      PTCLDY    56  55  97 SW6       29.99F
6HR MIN TEMP:  56; 6HR MAX TEMP:  67; 6HR PCP:  0.05;

WEST BEND      CLOUDY    63  54  72 CALM      30.02R
JUNEAU         CLOUDY    62  53  73 SW5       30.02S
$$

LSZ147-162-310700-
LAKE SUPERIOR

STATION/POSITION TIME  TEMP    WIND        PRES    WAVE
                       AIR SEA DIR/SP/G            HT/PER
                 (UTC) (F)     (DEG/KT/KT) (MB)    (FT/S)
W MID LAKE BUOY  0450   50 42  290/  4/  4 1014.5S   1
PORT WING        0540   62     180/  3/  4 1015.2R
SAXON HARBOR     0500          190/  4/  5 1014.9
$$

LMZ867-665-643>646-310700-
LAKE MICHIGAN

STATION/POSITION TIME  TEMP    WIND        PRES    WAVE
                       AIR SEA DIR/SP/G            HT/PER
                 (UTC) (F)     (DEG/KT/KT) (MB)    (FT/S)
N MID LAKE BUOY  0450   57 54  230/  8/ 10 1014.0R   1/ 3
NORTHPORT PIER   0500   60     290/  4/  6 1014.6S
SISTER BAY       0410   59        CALM       N/A
ALGOMA LAKESHORE 0521          250/  6/  6   N/A
KEWAUNEE LAKESHO 0500   58     270/  1/  2 1014.4S
SHEBOYGAN LAKESH 0500   63     260/  7/  9 1016.0R
PORT WASHINGTON  0500   62      CALM  /  3 1016.6S
ATWATER BUOY     0500   64     210/  8     1017.2F
MILWAUKEE LAKESH 0500   63     230/  9/ 11   N/A
S MID LAKE BUOY  0450   61 60  180/  4/  6 1016.7F   0
KENOSHA   LAKESH 0500   62     210/  5/  7 1016.6S
$$

TC  - TEMPERATURE IN CELSIUS
VSB - VISIBILITY IN STATUTE MILES
WCI - WIND CHILL INDEX
HX  - HEAT INDEX



USA.gov is the U.S. government's official web portal to all federal, state and local government web resources and services.